Date String (YYYY-MM-DD hh:mm:ss) UTC,Instrument flags,Ambient pressure (hPa),Sample flow (lpm),Bypass flow (lpm),Sample temperature (°C),Ambient temperature (°C),ASC tube jacket temperature (°C),LED temperature (°C),Box temperature (°C),Sample RH (%),Span deviation,Mass concentration (μg/m³),Mass concentration (μg/m³),Mass concentration (μg/m³)
DateTimeUTC,F1_M11,P_M11,Q1_M11,Q2_M11,T1_M11,T2_M11,T3_M11,T4_M11,T5_M11,U1_M11,ZSPAN_M11,X0_M11,X2_M11,X1_M11
2022-07-25 11:00:00,,0828.5,5.01,0.00,32.6,28.6,00.0,40.5,32.8,34.6,-000.5,0013.97,0009.85,0008.89
2022-07-25 11:01:00,,0828.7,4.99,0.00,32.5,28.7,00.0,40.5,32.8,34.6,-000.4,0013.88,0009.92,0008.95
2022-07-25 11:02:00,,0829.1,5.00,0.00,32.5,28.8,00.0,40.5,32.8,34.8,-000.8,0013.97,0010.06,0009.04
2022-07-25 11:03:00,,0828.9,4.99,0.00,32.4,28.9,00.0,40.6,32.8,34.9,-000.7,0014.07,0010.14,0009.12
2022-07-25 11:04:00,,0829.1,5.00,0.00,32.4,29.0,00.0,40.6,32.8,35.0,-000.3,0014.12,0010.22,0009.17
2022-07-25 11:05:00,,0829.0,5.00,0.00,32.4,29.0,00.0,40.6,32.9,35.0,-000.2,0014.26,0010.30,0009.23
2022-07-25 11:06:00,,0828.6,4.99,0.00,32.5,29.1,00.0,40.6,33.0,34.7,-000.6,0014.45,0010.37,0009.28
2022-07-25 11:07:00,,0828.8,5.02,0.00,32.5,29.1,00.0,40.6,33.0,34.7,-001.1,0014.50,0010.41,0009.34
2022-07-25 11:08:00,,0828.6,5.00,0.00,32.5,29.2,00.0,40.6,32.9,34.7,-001.5,0014.75,0010.57,0009.47
2022-07-25 11:09:00,,0828.6,4.99,0.00,32.5,29.2,00.0,40.6,33.0,34.6,-001.3,0014.93,0010.74,0009.61
2022-07-25 11:10:00,,0828.9,5.01,0.00,32.5,29.3,00.0,40.6,32.9,34.6,-001.2,0015.03,0010.85,0009.70
2022-07-25 11:11:00,,0829.1,4.99,0.00,32.4,29.3,00.0,40.7,33.0,34.6,-001.1,0015.12,0010.93,0009.78
2022-07-25 11:12:00,,0829.0,5.01,0.00,32.4,29.3,00.0,40.7,33.0,34.6,-001.5,0015.12,0010.95,0009.81
2022-07-25 11:13:00,,0828.6,4.99,0.00,32.4,29.4,00.0,40.7,33.0,34.6,-001.2,0015.03,0010.93,0009.82
2022-07-25 11:14:00,,0828.6,4.99,0.00,32.3,29.4,00.0,40.7,33.0,34.6,-001.0,0014.94,0010.92,0009.83
2022-07-25 11:15:00,,0828.4,5.01,0.00,32.3,29.4,00.0,40.7,33.0,34.6,-001.4,0014.98,0010.94,0009.86
2022-07-25 11:16:00,,0828.4,4.99,0.00,32.2,29.4,00.0,40.6,33.0,34.6,-001.7,0014.99,0010.92,0009.85
2022-07-25 11:17:00,,0828.3,5.01,0.00,32.2,28.7,00.0,40.5,32.9,34.6,-001.7,0015.12,0010.95,0009.85
2022-07-25 11:18:00,,0828.3,5.00,0.00,32.1,28.1,00.0,40.5,32.8,34.7,-001.5,0015.97,0011.03,0009.88
2022-07-25 11:19:00,,0828.3,5.00,0.00,32.0,27.9,00.0,40.4,32.6,34.8,-001.3,0016.00,0011.01,0009.88
2022-07-25 11:20:00,,0828.2,5.00,0.00,31.8,28.0,00.0,40.4,32.5,35.1,-001.7,0015.90,0010.96,0009.85
2022-07-25 11:21:00,,0828.2,5.00,0.00,31.9,28.1,00.0,40.4,32.6,35.1,-001.9,0015.87,0010.90,0009.82
2022-07-25 11:22:00,,0828.3,4.99,0.00,32.1,28.2,00.0,40.3,32.7,34.7,-001.8,0015.83,0010.86,0009.77
2022-07-25 11:23:00,,0828.3,5.01,0.00,32.2,28.3,00.0,40.3,32.7,34.5,-001.8,0015.95,0010.90,0009.74
2022-07-25 11:24:00,,0828.2,4.99,0.00,32.2,28.4,00.0,40.3,32.7,34.4,-001.8,0015.94,0010.90,0009.76
2022-07-25 11:25:00,,0828.3,5.01,0.00,32.2,28.5,00.0,40.3,32.6,34.4,-002.0,0015.89,0010.90,0009.77
2022-07-25 11:26:00,,0828.3,4.99,0.00,32.1,28.6,00.0,40.3,32.6,34.4,-001.7,0015.79,0010.88,0009.78
2022-07-25 11:27:00,,0828.3,5.00,0.00,32.1,28.7,00.0,40.3,32.6,34.5,-002.0,0015.85,0010.93,0009.81
2022-07-25 11:28:00,,0828.3,5.00,0.00,32.1,28.8,00.0,40.3,32.6,34.6,-001.9,0015.81,0010.96,0009.85
2022-07-25 11:29:00,,0828.4,4.99,0.00,32.0,28.9,00.0,40.3,32.6,34.6,-001.6,0015.50,0011.01,0009.91
2022-07-25 11:30:00,,0828.4,5.00,0.00,32.0,29.0,00.0,40.4,32.6,34.6,-001.7,0015.26,0011.08,0009.99
2022-07-25 11:31:00,,0828.4,5.00,0.00,31.9,29.0,00.0,40.4,32.7,34.7,-001.8,0015.17,0011.10,0010.05
2022-07-25 11:32:00,,0828.5,5.00,0.00,31.9,29.1,00.0,40.3,32.7,34.7,-001.6,0015.23,0011.19,0010.11
2022-07-25 11:33:00,,0828.5,5.01,0.00,31.9,29.1,00.0,40.3,32.7,34.8,-001.8,0015.29,0011.22,0010.16
2022-07-25 11:34:00,,0828.5,5.00,0.00,31.8,29.2,00.0,40.3,32.7,34.8,-002.0,0015.53,0011.22,0010.23
2022-07-25 11:35:00,,0828.4,5.00,0.00,31.8,29.2,00.0,40.3,32.7,34.8,-002.1,0015.71,0011.34,0010.31
2022-07-25 11:36:00,,0828.5,4.99,0.00,31.8,29.2,00.0,40.3,32.7,34.9,-002.1,0015.88,0011.43,0010.35
2022-07-25 11:37:00,,0828.4,5.00,0.00,31.8,29.3,00.0,40.3,32.8,35.1,-002.2,0016.16,0011.56,0010.42
2022-07-25 11:38:00,,0828.5,5.00,0.00,31.9,29.3,00.0,40.3,32.9,34.7,-002.0,0016.13,0011.55,0010.43
2022-07-25 11:39:00,,0828.5,4.99,0.00,32.0,29.3,00.0,40.3,32.9,34.4,-001.9,0016.05,0011.53,0010.41
2022-07-25 11:40:00,,0828.5,5.01,0.00,32.1,29.4,00.0,40.3,32.9,34.3,-002.0,0015.75,0011.43,0010.39
2022-07-25 11:41:00,,0828.5,5.00,0.00,32.1,29.4,00.0,40.3,32.9,34.3,-001.9,0016.15,0011.42,0010.35
2022-07-25 11:42:00,,0828.4,5.00,0.00,32.1,29.4,00.0,40.3,32.9,34.3,-001.9,0016.29,0011.46,0010.35
2022-07-25 11:43:00,,0828.5,5.01,0.00,32.1,29.4,00.0,40.4,32.9,34.5,-001.7,0016.42,0011.45,0010.37
2022-07-25 11:44:00,,0828.5,4.98,0.00,32.0,29.2,00.0,40.3,32.9,34.2,-001.7,0016.60,0011.41,0010.34
2022-07-25 11:45:00,,0828.5,5.01,0.00,32.0,28.4,00.0,40.3,32.8,33.8,-001.6,0016.18,0011.29,0010.22
2022-07-25 11:46:00,,0828.5,5.00,0.00,31.9,27.9,00.0,40.2,32.7,33.8,-001.3,0015.69,0011.06,0010.04
2022-07-25 11:47:00,,0828.5,5.00,0.00,31.8,27.9,00.0,40.2,32.5,33.9,-001.3,0015.41,0010.84,0009.88
2022-07-25 11:48:00,,0828.5,5.00,0.00,31.6,27.9,00.0,40.2,32.4,34.1,-001.1,0015.28,0010.64,0009.70
2022-07-25 11:49:00,,0828.4,5.01,0.00,31.5,28.0,00.0,40.1,32.4,34.3,-001.3,0015.06,0010.46,0009.54
2022-07-25 11:50:00,,0828.4,4.99,0.00,31.4,28.1,00.0,40.1,32.3,34.4,-001.3,0014.99,0010.36,0009.43
2022-07-25 11:51:00,,0828.4,5.00,0.00,31.4,28.3,00.0,40.1,32.3,34.0,-001.2,0014.76,0010.10,0009.22
2022-07-25 11:52:00,,0828.4,5.00,0.00,31.3,28.4,00.0,40.0,32.3,33.7,-000.9,0013.76,0009.71,0008.89
2022-07-25 11:53:00,,0828.4,5.01,0.00,31.3,28.5,00.0,40.0,32.4,33.5,-000.7,0013.25,0009.29,0008.52
2022-07-25 11:54:00,,0828.4,5.00,0.00,31.2,28.6,00.0,40.0,32.4,33.2,-000.4,0012.71,0008.83,0008.09
2022-07-25 11:55:00,,0828.4,5.00,0.00,31.2,28.6,00.0,40.0,32.4,33.3,-000.2,0012.02,0008.47,0007.72
2022-07-25 11:56:00,,0828.5,5.01,0.00,31.2,28.7,00.0,39.9,32.4,33.3,-000.0,0011.79,0008.19,0007.45
2022-07-25 11:57:00,,0828.5,5.00,0.00,31.1,28.8,00.0,39.9,32.4,33.5,0000.0,0011.59,0007.97,0007.26
2022-07-25 11:58:00,,0828.5,5.00,0.00,31.1,28.9,00.0,39.9,32.4,33.5,0000.0,0011.39,0007.79,0007.09
2022-07-25 11:59:00,,0828.8,5.00,0.00,31.1,28.9,00.0,39.9,32.4,33.4,0000.0,0011.02,0007.58,0006.90
